Regional Weather Roundup
Issued by NWS

Home | Current Version | Previous Version | Text Only | Print | Product List | Glossary Off
Versions: 1 2 3 4 5 6 7 8 9 10 11 12 13 14 15 16 17 18 19 20 21 22 23 24 25 26 27 28 29 30 31 32 33 34 35 36 37 38 39 40 41 42 43 44 45 46 47 48 49 50

000
ASUS43 KMKX 291000
RWRWI

WISCONSIN REGIONAL WEATHER ROUNDUP
NATIONAL WEATHER SERVICE MILWAUKEE/SULLIVAN WI
500 AM CDT THU SEP 29 2016

NOTE: "FAIR" INDICATES FEW OR NO CLOUDS BELOW 12,000 FEET WITH NO
SIGNIFICANT WEATHER AND/OR OBSTRUCTIONS TO VISIBILITY.

WIZ001-002-006>008-014>016-023>028-291100-
NORTHWEST WISCONSIN

CITY           SKY/WX    TMP DP  RH WIND       PRES   REMARKS
SUPERIOR ARPT  CLOUDY    49  49 100 CALM      30.46R
ASHLAND        MOCLDY    49  48  97 N6        30.45R
HAYWARD        CLOUDY    50  48  93 N5        30.44R
SIREN          CLEAR     41  40  98 CALM      30.44R FOG
CUMBERLAND     CLOUDY    46  45  93 NE8       30.42R FOG
RICE LAKE      CLOUDY    49  47  95 N9        30.43R
CHETEK         NOT AVBL
LADYSMITH      CLOUDY    48  47  97 N7        30.42R
EAU CLAIRE     CLEAR     45  45 100 N3        30.38R FOG
MENOMONIE      CLEAR     46  46  98 CALM      30.40R
NEW RICHMOND   CLEAR     44  44 100 N3        30.42R
OSCEOLA        FOG       46  46 100 N3        30.45R VSB 1/2
$$

WIZ003>005-009-010-017-018-291100-
NORTH CENTRAL WISCONSIN

CITY           SKY/WX    TMP DP  RH WIND       PRES   REMARKS
MANITOWISH WTR NOT AVBL
ARBOR VITAE    CLOUDY    52  50  95 N7        30.41R
WOODRUFF       CLOUDY    52  50  95 N7        30.41R
RHINELANDER    MOCLDY    46  46 100 VRB5      30.40R
EAGLE RIVER    CLOUDY    47  47 100 N7        30.40R FOG
LAND O LAKES   FOG       48  48 100 N9        30.43R VSB 1
PHILLIPS       CLEAR     46  46 100 NE7       30.40R
TOMAHAWK       CLEAR     44  44  97 CALM      30.39R
MEDFORD        CLEAR    N/A N/A N/A N5        30.37R
MERRILL        CLEAR     46  46 100 NE6       30.38R
$$

WIZ029-030-035-036-043>047-291100-
CENTRAL WISCONSIN

CITY           SKY/WX    TMP DP  RH WIND       PRES   REMARKS
WAUSAU         CLEAR     48  46  93 NW6       30.35R
MOSINEE        CLEAR     46  46 100 N12       30.36R
MARSHFIELD     CLEAR     49  45  86 N7        30.35R
STEVENS POINT  CLEAR     46  46 100 N6        30.34R
WAUPACA        CLEAR     52  50  95 N5        30.32R
WAUTOMA        CLEAR     51  49  92 NE9       30.30S
WISC RAPIDS    CLEAR     49  48  97 N10       30.35R
CAMP DOUGLAS   NOT AVBL
$$

WIZ011>013-019>022-031-037>040-048>050-291100-
NORTHEAST WISCONSIN

CITY           SKY/WX    TMP DP  RH WIND       PRES   REMARKS
ANTIGO         CLEAR     46  46 100 N7        30.36R
SHAWANO        CLEAR     53  50  89 NE8       30.33S
OCONTO         NOT AVBL
STURGEON BAY   CLEAR     58  55  90 N10       30.30R
GREEN BAY      CLEAR     52  52 100 N9        30.30R
MANITOWOC      NOT AVBL
APPLETON       CLEAR     50  50 100 N14       30.28S
CLINTONVILLE   CLEAR     50  48  93 NE8       30.31S
OSHKOSH        MOCLDY    53  49  86 N14       30.28R
$$

WIZ032>034-041-042-053>061-291100-
SOUTHWEST WISCONSIN

CITY           SKY/WX    TMP DP  RH WIND       PRES   REMARKS
LA CROSSE      CLEAR     52  50  93 N7        30.36R
SPARTA         CLEAR     47  47 100 CALM      30.36R
VIROQUA        CLEAR     49  49  99 N7        30.33R
BOSCOBEL       PTCLDY    52  49  89 N3        30.31S
PRAIRIE DU CHI CLEAR     49  47  91 CALM      30.31R
PLATTEVILLE    CLEAR     51  51 100 N10       30.27R
$$

WIZ056-057-062-063-064-067-068-291100-
SOUTH CENTRAL WISCONSIN

CITY           SKY/WX    TMP DP  RH WIND       PRES   REMARKS
REEDSBURG      NOT AVBL
BARABOO/DELLS  CLEAR     49  47  93 N3        30.29S
LONE ROCK      NOT AVBL
MINERAL POINT  PTCLDY    52  50  93 N8        30.27R
MADISON        PTCLDY    52  50  93 N13       30.25S
MIDDLETON      MOCLDY    53  53  99 N12       30.27R
WATERTOWN      CLOUDY    54  54 100 N9G17     30.23R
MONROE         CLOUDY    54  52  94 N12G20    30.22S
JANESVILLE     CLOUDY    57  54  88 N14G21    30.19R
$$

WIZ051-052-058>065-066-070>072-291100-
SOUTHEAST WISCONSIN

CITY           SKY/WX    TMP DP  RH WIND       PRES   REMARKS
MILWAUKEE      MOCLDY    60  56  86 N20G32    30.18R
WAUKESHA       CLOUDY    55  52  88 N13       30.21R
MILWAUKEE/TIMM CLOUDY    59  52  77 N14G23    30.20R
RACINE         CLOUDY    57  55  93 N20       30.17R
BURLINGTON     MOCLDY    58  54  85 N13G21    30.17R
KENOSHA        CLOUDY    60  57  89 N16G25    30.15R
FOND DU LAC    CLOUDY    56  52  86 N16       30.28R
SHEBOYGAN      MOCLDY    56  52  86 N14G21    30.23R
WEST BEND      CLOUDY    55  52  88 N8        30.22R
JUNEAU         CLOUDY    52  51  95 N16       30.25S
$$

LSZ147-162-291100-
LAKE SUPERIOR

STATION/POSITION TIME  TEMP    WIND        PRES    WAVE
                       AIR SEA DIR/SP/G            HT/PER
                 (UTC) (F)     (DEG/KT/KT) (MB)    (FT/S)
W MID LAKE BUOY  0850   55 54   20/ 12/ 14 1030.3R   1/ 5
DEVILS ISLAND    0900   53      40/  8/  8 1031.3R
SAXON HARBOR     0900   56      50/ 10/ 12 1029.8
$$

LMZ867-665-643>646-291100-
LAKE MICHIGAN

STATION/POSITION TIME  TEMP    WIND        PRES    WAVE
                       AIR SEA DIR/SP/G            HT/PER
                 (UTC) (F)     (DEG/KT/KT) (MB)    (FT/S)
CHAMBERS ISLAND  0900   59     350/ 20/ 23 1025.7R
N MID LAKE BUOY  0850   63 66   20/ 17/ 19 1025.0R   4/ 5
NORTHPORT PIER   0900   60      20/ 13/ 19 1026.1R
SISTER BAY       0908   58      20/ 13/ 18   N/A
KEWAUNEE LAKESHO 0900   57     360/  7/ 13 1024.1R
SHEBOYGAN LAKESH 0900   58      10/ 23/ 26 1022.9R
PORT WASHINGTON  0900   60      10/ 10/ 22 1023.0S
ATWATER BUOY     0900   57 54   30/ 21/ 27 1021.2R
MILWAUKEE LAKESH 0910   59     350/ 21/ 27   N/A
S MID LAKE BUOY  0850   65 69   50/ 23/ 27 1018.0R   7/ 7
KENOSHA   LAKESH 0900   58     360/ 20/ 23 1020.0R
$$

TC  - TEMPERATURE IN CELSIUS
VSB - VISIBILITY IN STATUTE MILES
WCI - WIND CHILL INDEX
HX  - HEAT INDEX





USA.gov is the U.S. government's official web portal to all federal, state and local government web resources and services.